[[{"header":{"parameterUnit":"m.s-1","parameterCategory":1,"la1":30.2991,"la2":30.254,"lo1":-89.0895,"lo2":-89.0444,"dy":0.0017,"dx":0.0017,"nx":28,"ny":28,"refTime":"2025-04-21T21:00:00:Z","depth":0,"parameterNumber":2,"parameterNumberName":"U-component_of_WINDS"},"data":[0,0,0,0,0,0,0,0,0,0,0,0,0,0,0,0,0,0,0,0,0,0,0,0,0,0,0,0,0,0,0,0,0,0,0,0,0,0,0,0,0,0,0,0,0,0,0,0,0,0,0,0,0,0,0,0,0,0,-2.4045,-2.4045,0,-2.4079,-2.408,-2.408,-2.4047,-2.4046,-2.4045,-2.4043,-2.4078,-2.408,-2.4082,0,0,0,0,0,0,0,0,0,0,0,0,0,-2.3951,-2.3953,-2.4045,-2.4045,-2.4046,-2.4079,-2.408,-2.408,-2.4048,-2.4046,-2.4044,-2.4043,-2.4077,-2.408,-2.4082,0,0,0,0,0,0,0,0,0,0,0,0,0,-2.399,-2.3954,-2.4045,-2.4033,-2.4033,-2.4079,-2.408,-2.408,-2.4048,-2.4046,-2.4044,-2.4042,-2.4076,-2.4079,-2.4083,-2.4142,0,0,-2.4092,-2.4094,0,0,0,0,0,0,0,0,-2.3987,-2.3993,-2.4035,-2.4034,-2.4034,-2.4057,-2.4059,-2.4101,-2.4048,-2.4042,-2.4043,-2.4041,-2.4072,-2.4076,-2.4087,-2.4143,-2.4145,-2.4093,-2.4095,-2.4096,-2.4097,0,0,0,0,0,0,0,-2.3985,-2.3991,-2.4058,-2.4035,-2.4035,-2.4027,-2.403,-2.4067,-2.4068,-2.4042,-2.404,-2.4045,-2.4072,-2.4084,-2.4087,-2.4145,-2.4093,-2.4095,-2.4097,-2.4099,-2.4255,-2.4257,0,0,0,0,0,0,-2.3983,-2.3989,-2.4057,-2.4059,-2.4005,-2.403,-2.4034,-2.4051,-2.4067,-2.4068,-2.4046,-2.4043,-2.4079,-2.4083,-2.4088,-2.416,-2.4096,-2.4099,-2.4101,-2.4253,-2.4256,-2.4258,0,0,0,0,0,0,-2.3982,-2.399,-2.4056,-2.4024,-2.4032,-2.4034,-2.4054,-2.4053,-2.4065,-2.407,-2.407,-2.4058,-2.4078,-2.4084,-2.4129,-2.416,-2.41,-2.4103,-2.425,-2.4254,-2.4257,-2.4303,0,0,0,0,0,0,-2.3979,-2.3989,-2.4011,-2.4025,-2.4034,-2.4096,-2.4056,-2.4055,-2.4071,-2.4067,-2.4081,-2.4082,-2.4077,-2.4125,-2.4133,-2.4164,-2.4106,-2.4248,-2.4252,-2.4256,-2.4298,-2.4307,-2.4315,0,0,0,0,0,-2.3976,-2.4022,-2.4012,-2.4021,-2.4061,-2.4098,-2.4103,-2.4096,-2.4073,-2.4096,-2.41,-2.4082,-2.4156,-2.413,-2.4138,-2.4171,-2.4245,-2.4251,-2.4256,-2.4295,-2.4305,-2.4314,0,0,0,0,0,0,-2.401,-2.4023,-2.4013,-2.4065,-2.4081,-2.4092,-2.412,-2.4107,-2.4129,-2.4125,-2.4115,-2.4119,-2.4168,-2.4174,-2.4144,-2.423,-2.4197,-2.4204,-2.4224,-2.4234,-2.4242,-2.4239,-2.4109,0,0,0,0,0,-2.4025,-2.4053,-2.4063,-2.4108,-2.4116,-2.4117,-2.4133,-2.4127,-2.4143,-2.4149,-2.4156,-2.4172,-2.42,-2.4217,-2.4243,-2.43,-2.4303,-2.4327,-2.4335,-2.4342,-2.4347,-2.438,-2.4391,-2.4275,-2.4275,-2.4274,0,0,-2.4053,-2.4064,-2.4082,-2.4115,-2.4127,-2.4157,-2.4123,-2.4156,-2.4179,-2.4154,-2.4197,-2.4204,-2.4222,-2.4274,-2.4297,-2.428,-2.4381,-2.4348,-2.4353,-2.4356,-2.4386,-2.4397,-2.4407,-2.4278,-2.4277,-2.4277,0,0,-2.412,-2.4131,-2.417,-2.4184,-2.4202,-2.4203,-2.4213,-2.4227,-2.4231,-2.4275,-2.4258,-2.4285,-2.4332,-2.4346,-2.4359,-2.4437,-2.4421,-2.4445,-2.4487,-2.4519,-2.4528,-2.4536,-2.4565,-2.4575,-2.4451,-2.4451,-2.4451,0,-2.4153,-2.4198,-2.4192,-2.4228,-2.4243,-2.4224,-2.4265,-2.4278,-2.4303,-2.4315,-2.4297,-2.4357,-2.4367,-2.4423,-2.4443,-2.4454,-2.4465,-2.4442,-2.4528,-2.4536,-2.4543,-2.457,-2.458,-2.4454,-2.4454,-2.4453,-2.4453,0,-2.4238,-2.427,-2.43,-2.4327,-2.4346,-2.4384,-2.4384,-2.4405,-2.4398,-2.4402,-2.4448,-2.4461,-2.4489,-2.4502,-2.4495,-2.4558,-2.4548,-2.4529,-2.4495,-2.4557,-2.4582,-2.4592,-2.4458,-2.4457,-2.4456,-2.4456,0,0,-2.4325,-2.4351,-2.4362,-2.4375,-2.4396,-2.4421,-2.4459,-2.4488,-2.4506,-2.4526,-2.4558,-2.46,-2.4584,-2.4599,-2.4594,-2.4622,-2.4684,-2.46,-2.46,-2.4615,-2.4756,-2.477,-2.4781,-2.4675,-2.4677,-2.4679,-2.4755,0,-2.4394,-2.446,-2.4457,-2.4519,-2.4549,-2.4534,-2.4567,-2.4584,-2.4589,-2.4616,-2.4622,-2.4652,-2.4628,-2.4637,-2.4664,-2.4671,-2.4712,-2.4665,-2.4705,-2.4706,-2.47,-2.4794,-2.4808,-2.4879,-2.4764,-2.4766,-2.4767,0,-2.4481,-2.4506,-2.4571,-2.459,-2.4603,-2.4633,-2.4661,-2.4687,-2.4707,-2.4709,-2.4728,-2.4719,-2.4759,-2.4726,-2.4781,-2.475,-2.4766,-2.4772,-2.4775,-2.4777,-2.4739,-2.4799,-2.4901,-2.4912,-2.4782,-2.4781,-2.478,0,-2.4539,-2.4588,-2.4634,-2.4646,-2.4669,-2.4691,-2.4702,-2.472,-2.4739,-2.4763,-2.4775,-2.4804,-2.482,-2.4843,-2.4843,-2.4819,-2.49,-2.4866,-2.4902,-2.4903,-2.4918,-2.4917,-2.5025,-2.4931,-2.4931,-2.493,-2.493,0,-2.4615,-2.4656,-2.466,-2.4688,-2.4734,-2.4732,-2.4778,-2.4786,-2.4804,-2.4834,-2.4822,-2.4851,-2.485,-2.4879,-2.488,-2.4926,-2.4934,-2.4937,-2.4936,-2.4937,-2.4937,-2.4947,-2.4941,-2.4933,-2.4933,-2.4932,-2.4932,0,-2.4686,-2.4691,-2.474,-2.4759,-2.4765,-2.4798,-2.4815,-2.4842,-2.4848,-2.4887,-2.4896,-2.4904,-2.4939,-2.4942,-2.4981,-2.4982,-2.5038,-2.5033,-2.5032,-2.503,-2.5067,-2.5063,-2.5183,-2.5199,-2.5096,-2.5097,-2.5097,0,-2.4733,-2.4765,-2.4788,-2.4808,-2.4821,-2.4853,-2.4872,-2.4872,-2.4893,-2.4921,-2.4945,-2.4979,-2.5006,-2.5062,-2.5072,-2.5103,-2.5098,-2.5138,-2.5102,-2.5103,-2.5098,-2.5096,-2.51,-2.5144,-2.5145,-2.5146,-2.5147,0,-2.4818,-2.482,-2.4848,-2.4879,-2.4903,-2.4927,-2.4949,-2.4967,-2.497,-2.4994,-2.503,-2.5051,-2.5093,-2.5127,-2.5159,-2.517,-2.516,-2.5159,-2.5169,-2.517,-2.5168,-2.517,-2.505,-2.5155,-2.5155,-2.5154,-2.5154,-2.5153,-2.4878,-2.4906,-2.4928,-2.4961,-2.4979,-2.5001,-2.5028,-2.5038,-2.5068,-2.5103,-2.5102,-2.5142,-2.5164,-2.5205,-2.5219,-2.5251,-2.5237,-2.5252,-2.5255,-2.5259,-2.5263,-2.5164,-2.5257,-2.5256,-2.5256,-2.5256,-2.5256,0,-2.4962,-2.4976,-2.5007,-2.504,-2.5067,-2.5056,-2.5081,-2.5104,-2.514,-2.5162,-2.5189,-2.5232,-2.5266,-2.528,-2.5313,-2.5336,-2.5333,-2.5345,-2.5343,-2.5346,-2.5273,-2.5261,-2.5348,-2.5348,-2.5348,-2.5348,-2.5348,-2.5348,-2.5008,-2.5056,-2.5061,-2.5117,-2.5131,-2.5171,-2.5186,-2.5207,-2.5225,-2.5273,-2.5302,-2.5311,-2.5331,-2.5366,-2.5397,-2.5401,-2.5413,-2.5428,-2.5429,-2.536,-2.5351,-2.5342,-2.5331,-2.5431,-2.5431,-2.55,-2.5501,-2.5501]},{"header":{"parameterUnit":"m.s-1","parameterCategory":1,"la1":30.2991,"la2":30.254,"lo1":-89.0895,"lo2":-89.0444,"dy":0.0017,"dx":0.0017,"nx":28,"ny":28,"refTime":"2025-04-21T21:00:00:Z","depth":0,"parameterNumber":3,"parameterNumberName":"V-component_of_WINDS"},"data":[0,0,0,0,0,0,0,0,0,0,0,0,0,0,0,0,0,0,0,0,0,0,0,0,0,0,0,0,0,0,0,0,0,0,0,0,0,0,0,0,0,0,0,0,0,0,0,0,0,0,0,0,0,0,0,0,0,0,2.0142,2.0142,0,2.0125,2.0125,2.0125,2.0159,2.016,2.0162,2.0163,2.014,2.0138,2.0136,0,0,0,0,0,0,0,0,0,0,0,0,0,2.02,2.0198,2.0142,2.0142,2.0142,2.0125,2.0125,2.0125,2.0159,2.0161,2.0162,2.0163,2.014,2.0138,2.0136,0,0,0,0,0,0,0,0,0,0,0,0,0,2.0178,2.0198,2.0142,2.0157,2.0158,2.0125,2.0125,2.0125,2.0159,2.0161,2.0162,2.0164,2.0141,2.0138,2.0136,2.0086,0,0,2.0128,2.0127,0,0,0,0,0,0,0,0,2.0179,2.0176,2.0155,2.0156,2.0157,2.0146,2.0137,2.0112,2.0158,2.0158,2.0163,2.0165,2.014,2.0138,2.0131,2.0085,2.0084,2.0128,2.0127,2.0125,2.0125,0,0,0,0,0,0,0,2.018,2.0176,2.0135,2.0154,2.0156,2.0163,2.0162,2.0132,2.014,2.0158,2.0161,2.0159,2.0141,2.0133,2.013,2.0084,2.0128,2.0126,2.0124,2.0123,1.9998,1.9996,0,0,0,0,0,0,2.0181,2.0177,2.0136,2.0135,2.0173,2.0161,2.0159,2.0148,2.014,2.0141,2.0157,2.0161,2.0136,2.0133,2.013,2.0071,2.0126,2.0123,2.0122,2.0,1.9997,1.9996,0,0,0,0,0,0,2.0182,2.0177,2.0136,2.0157,2.0152,2.0158,2.0145,2.0147,2.0139,2.0139,2.014,2.0148,2.0138,2.0133,2.0098,2.0071,2.0122,2.012,2.0002,1.9999,1.9997,1.9953,0,0,0,0,0,0,2.0183,2.0177,2.0159,2.0156,2.0151,2.0105,2.0143,2.0145,2.0135,2.0139,2.0131,2.0131,2.0139,2.0101,2.0095,2.0068,2.0118,2.0004,2.0001,1.9997,1.9957,1.995,1.9943,0,0,0,0,0,2.0185,2.0146,2.0158,2.0152,2.0129,2.0104,2.0101,2.0112,2.0133,2.0114,2.0115,2.0131,2.0076,2.0097,2.0091,2.0063,2.0006,2.0002,1.9998,1.996,1.9951,1.9943,0,0,0,0,0,0,2.0142,2.0145,2.0159,2.0117,2.011,2.011,2.0086,2.0101,2.0086,2.009,2.0103,2.0101,2.0063,2.0059,2.0084,2.0015,2.0044,2.0038,2.0018,2.0009,2.0002,2.0003,2.0116,0,0,0,0,0,2.0128,2.0109,2.0113,2.0076,2.0072,2.008,2.0069,2.0079,2.0071,2.0068,2.0066,2.0056,2.0037,2.0023,2.0005,1.9958,1.9956,1.9936,1.9929,1.9923,1.9917,1.9892,1.9883,1.9982,1.9982,1.9982,0,0,2.0098,2.0098,2.0084,2.0067,2.0063,2.0042,2.0077,2.0052,2.0036,2.0063,2.003,2.0028,2.0019,1.9977,1.9959,1.9973,1.989,1.9918,1.9913,1.991,1.9887,1.9878,1.9869,1.9979,1.998,1.998,0,0,2.0032,2.0031,2.0,1.9996,1.999,1.9996,1.9989,1.9987,1.9988,1.9955,1.9975,1.9956,1.9922,1.9914,1.9906,1.9841,1.9856,1.9835,1.9797,1.9773,1.9765,1.9758,1.9734,1.9725,1.983,1.983,1.983,0,1.9995,1.9965,1.9982,1.9957,1.9949,1.9976,1.9944,1.9939,1.9926,1.9919,1.9937,1.9896,1.9891,1.9849,1.9833,1.9826,1.9817,1.9835,1.9765,1.9758,1.9752,1.9729,1.972,1.9827,1.9827,1.9828,1.9828,0,1.992,1.9899,1.9875,1.9865,1.9854,1.9826,1.9838,1.9825,1.9836,1.984,1.9807,1.9803,1.9785,1.9776,1.9786,1.9735,1.9745,1.9763,1.9792,1.974,1.9719,1.971,1.9823,1.9824,1.9825,1.9826,0,0,1.9822,1.9825,1.9816,1.9812,1.9809,1.9793,1.9766,1.9751,1.974,1.9731,1.9708,1.9681,1.9699,1.9689,1.9699,1.9678,1.9627,1.97,1.97,1.9685,1.957,1.9555,1.9544,1.9638,1.9636,1.9635,1.9571,0,1.9757,1.9713,1.9729,1.9683,1.9664,1.9691,1.9668,1.9663,1.9667,1.965,1.9654,1.9634,1.966,1.9655,1.9635,1.9637,1.9603,1.9642,1.9615,1.9614,1.9614,1.9534,1.9517,1.9456,1.9563,1.9561,1.956,0,1.9674,1.9665,1.9618,1.962,1.9613,1.9592,1.958,1.9564,1.956,1.9564,1.9555,1.957,1.9543,1.9575,1.9538,1.9564,1.9554,1.9554,1.9552,1.9548,1.9582,1.9526,1.9437,1.9427,1.9547,1.9548,1.9549,0,1.9606,1.9582,1.9552,1.9548,1.955,1.9535,1.9534,1.9532,1.9522,1.9512,1.9506,1.9492,1.9483,1.9472,1.9482,1.9504,1.9443,1.9475,1.9444,1.9444,1.9428,1.9428,1.9335,1.9425,1.9425,1.9425,1.9425,0,1.953,1.95,1.9522,1.9502,1.947,1.9489,1.9455,1.9458,1.9456,1.9437,1.946,1.9441,1.9457,1.944,1.9448,1.9416,1.9412,1.9414,1.9416,1.941,1.941,1.9402,1.9406,1.9423,1.9423,1.9424,1.9424,0,1.9448,1.9462,1.943,1.9436,1.9437,1.9412,1.9416,1.9398,1.9406,1.9381,1.9377,1.9387,1.9368,1.9378,1.9358,1.9363,1.9321,1.933,1.9323,1.9325,1.9293,1.9295,1.9189,1.9176,1.9276,1.9275,1.9275,0,1.9397,1.9376,1.938,1.937,1.9369,1.9353,1.9344,1.9362,1.9352,1.9347,1.9329,1.9313,1.9301,1.9269,1.9274,1.9259,1.9266,1.923,1.9263,1.9259,1.9264,1.9264,1.9262,1.9222,1.9221,1.922,1.9219,0,1.9306,1.9315,1.9302,1.9293,1.9283,1.9276,1.927,1.9261,1.9279,1.9266,1.9249,1.924,1.9221,1.9204,1.9192,1.919,1.9207,1.921,1.9201,1.9195,1.9191,1.9192,1.9303,1.9211,1.9212,1.9212,1.9213,1.9213,1.9237,1.9219,1.9221,1.9206,1.9205,1.92,1.9184,1.9191,1.9177,1.9164,1.9176,1.9155,1.9152,1.9138,1.9134,1.9117,1.9131,1.912,1.9116,1.9113,1.9108,1.9196,1.9115,1.9115,1.9116,1.9116,1.9116,0,1.9146,1.9149,1.9136,1.913,1.9119,1.914,1.9135,1.9124,1.9106,1.9103,1.9092,1.9072,1.9056,1.9061,1.9047,1.9032,1.904,1.9028,1.9028,1.9027,1.9097,1.9105,1.9022,1.9022,1.9022,1.9022,1.9022,1.9022,1.9097,1.9068,1.9078,1.9048,1.9051,1.9032,1.9028,1.9024,1.9022,1.8999,1.8987,1.8992,1.8992,1.8979,1.8965,1.8967,1.896,1.8945,1.8949,1.9013,1.9022,1.9031,1.9039,1.8944,1.8944,1.8881,1.8881,1.888]}]]